Woodland, WA

4:03 PM PST on February 19, 2017 (GMT -0800)
Public Works | | Change Station

Elev 33 ft 45.92 °N, 122.75 °W | Updated 19 seconds ago

Rain
Rain
42.6 °F
Feels Like 40 °F
N
4.2
Wind Variable Wind from SSE
Gusts 8.3 mph

Today
High -- | Low -- °F
--% Chance of Precip.
Yesterday
High -- | Low -- °F
Precip. -- in
Pressure 29.58 in
Visibility 10.0 miles
Clouds Mostly Cloudy 4400 ft
Mostly Cloudy 5500 ft
Overcast 7000 ft
Windchill 40 °F
Dew Point 41 °F
Humidity 94%
Rainfall 0.54 in
Snow Depth Not available.
7:06 AM 5:43 PM
Last Quarter, 39% visible
METAR KSPB 192353Z AUTO 13007KT 10SM -RA BKN044 BKN055 OVC070 06/04 A2958 RMK AO2 SLP017 P0008 60026 T00610044 10094 20056 53018
Pressure 29.58 in
Visibility 10.0 miles
Clouds Mostly Cloudy 4400 ft
Mostly Cloudy 5500 ft
Overcast 7000 ft
Windchill 40 °F
Dew Point 41 °F
Humidity 94%
Rainfall 0.54 in
Snow Depth Not available.
7:06 AM 5:43 PM
Last Quarter, 39% visible
METAR KSPB 192353Z AUTO 13007KT 10SM -RA BKN044 BKN055 OVC070 06/04 A2958 RMK AO2 SLP017 P0008 60026 T00610044 10094 20056 53018

Get Your Daily Forecast Email!

Thanks for signing up!

Be on the lookout for a verification email in your inbox.

You'll start receiving the daily forecast at 8 AM.

×

10-Day Weather Forecast

Almanac

Astronomy

Feb. 19, 2017 Rise Set
Actual Time
Civil Twilight
Nautical Twilight
Astronomical Twilight
Moon
Length of Visible Light
Length of Day
Tomorrow will be .
, % of the Moon is Illuminated

Today's Extremes

State Highs State Lows

Community

WunderPhotos

Upload Photos

1,962,540 photos uploaded!

WunderBlog® & News

Nearby

Air Quality

  Air Quality AQ Index Pollutant
Not available.

Snow Depth

Station Depth Elevation

Earthquake Activity

City Distance Mag. Time & Date
Minimum magnitude displayed is 2.5.

Coastal Water Temperatures

Place Temperature

Stations

Nearby Weather Stations

Station Location Temp. Windchill Dew Point Humidity Wind Precip. Elev Updated Type
                   

Watches & Warnings

Small Craft for Rough Bar Advisory
Issued: 1:29 PM PST Feb. 19, 2017 – National Weather Service

... Small Craft Advisory for rough bar now in effect from 10 PM
this evening to 2 PM PST Monday...

* in the Main Channel...

* general seas... around 10 ft.

* First Ebb... around 1130 PM tonight. Seas near 12 ft.

* Second Ebb... around 1215 PM Sunday. Seas near 10 ft.

Precautionary/preparedness actions...

A Small Craft Advisory for rough bar means that wave conditions
are expected to be hazardous to small craft in or near Harbor
entrances.